TimeMDT,TemperatureF,Dew PointF,Humidity,Sea Level PressureIn,VisibilityMPH,Wind Direction,Wind SpeedMPH,Gust SpeedMPH,PrecipitationIn,Events,Conditions,WindDirDegrees,DateUTC
12:53 AM,73.0,46.0,38,29.84,10.0,North,5.8,-,N/A,,Clear,10,2013-08-18 06:53:00
1:53 AM,72.0,46.0,40,29.82,10.0,NNE,6.9,-,N/A,,Clear,20,2013-08-18 07:53:00
2:53 AM,70.0,46.0,42,29.82,10.0,NNW,9.2,-,N/A,,Clear,340,2013-08-18 08:53:00
3:53 AM,70.0,46.9,44,29.82,10.0,NNW,5.8,-,N/A,,Clear,340,2013-08-18 09:53:00
4:53 AM,68.0,48.0,49,29.84,10.0,West,8.1,-,N/A,,Clear,260,2013-08-18 10:53:00
5:53 AM,64.9,46.0,50,29.86,10.0,West,11.5,-,N/A,,Clear,280,2013-08-18 11:53:00
6:53 AM,68.0,46.0,45,29.89,10.0,NW,8.1,-,N/A,,Clear,310,2013-08-18 12:53:00
7:53 AM,68.0,46.0,45,29.93,10.0,NNW,12.7,-,N/A,,Clear,340,2013-08-18 13:53:00
8:53 AM,73.9,48.0,40,29.95,10.0,NNE,12.7,-,N/A,,Clear,30,2013-08-18 14:53:00
9:53 AM,73.9,50.0,43,29.97,10.0,SSE,4.6,-,N/A,,Clear,150,2013-08-18 15:53:00
10:53 AM,77.0,50.0,39,29.98,10.0,SSE,4.6,-,N/A,,Clear,160,2013-08-18 16:53:00
11:53 AM,82.0,48.0,30,29.97,10.0,ESE,9.2,-,N/A,,Clear,110,2013-08-18 17:53:00
12:53 PM,84.0,48.0,28,29.95,10.0,East,12.7,-,N/A,,Clear,100,2013-08-18 18:53:00
1:53 PM,87.1,48.0,26,29.92,10.0,East,10.4,-,N/A,,Partly Cloudy,100,2013-08-18 19:53:00
2:53 PM,89.1,48.0,24,29.90,10.0,Variable,5.8,-,N/A,,Partly Cloudy,0,2013-08-18 20:53:00
3:53 PM,89.1,48.0,24,29.87,10.0,SE,11.5,-,N/A,,Partly Cloudy,130,2013-08-18 21:53:00
4:53 PM,90.0,46.9,23,29.85,10.0,ESE,11.5,21.9,N/A,,Partly Cloudy,110,2013-08-18 22:53:00
5:53 PM,89.1,46.0,22,29.85,10.0,SE,10.4,-,N/A,,Partly Cloudy,140,2013-08-18 23:53:00
6:53 PM,88.0,46.0,23,29.83,10.0,SSE,9.2,-,N/A,,Partly Cloudy,150,2013-08-19 00:53:00
7:53 PM,86.0,45.0,24,29.83,10.0,SSE,8.1,-,N/A,,Clear,150,2013-08-19 01:53:00
8:53 PM,82.9,46.0,27,29.83,10.0,South,10.4,-,N/A,,Clear,170,2013-08-19 02:53:00
9:53 PM,81.0,46.0,29,29.85,10.0,South,6.9,-,N/A,,Clear,190,2013-08-19 03:53:00
10:53 PM,79.0,46.0,31,29.85,10.0,SSW,6.9,-,N/A,,Clear,210,2013-08-19 04:53:00
11:53 PM,79.0,46.0,31,29.85,10.0,WSW,4.6,-,N/A,,Clear,240,2013-08-19 05:53:00